TimeEDT,TemperatureF,Dew PointF,Humidity,Sea Level PressureIn,VisibilityMPH,Wind Direction,Wind SpeedMPH,Gust SpeedMPH,PrecipitationIn,Events,Conditions,WindDirDegrees,DateUTC
12:00 AM,73.9,70.0,87,29.94,-9999.0,Calm,Calm,-,N/A,,Clear,0,2013-07-22 04:00:00
1:00 AM,75.0,71.1,87,29.94,-9999.0,Calm,Calm,-,N/A,,Clear,0,2013-07-22 05:00:00
2:00 AM,75.2,71.6,89,29.93,-9999.0,Calm,Calm,-,N/A,,Partly Cloudy,0,2013-07-22 06:00:00
2:06 AM,75.0,71.1,87,29.92,-9999.0,Calm,Calm,-,N/A,,Scattered Clouds,0,2013-07-22 06:06:00
2:14 AM,75.2,71.6,89,29.93,-9999.0,Calm,Calm,-,N/A,,Mostly Cloudy,0,2013-07-22 06:14:00
2:42 AM,78.8,71.6,78,29.93,-9999.0,Calm,Calm,-,N/A,,Overcast,0,2013-07-22 06:42:00
3:00 AM,75.2,71.6,89,29.93,-9999.0,Calm,Calm,-,N/A,,Overcast,0,2013-07-22 07:00:00
3:25 AM,78.8,73.4,83,29.93,-9999.0,Calm,Calm,-,N/A,,Overcast,0,2013-07-22 07:25:00
3:47 AM,77.0,71.6,83,29.93,-9999.0,Calm,Calm,-,N/A,,Overcast,0,2013-07-22 07:47:00
4:00 AM,75.9,72.0,87,29.92,-9999.0,Calm,Calm,-,N/A,,Overcast,0,2013-07-22 08:00:00
5:00 AM,78.1,73.0,84,29.92,-9999.0,Calm,Calm,-,N/A,,Overcast,0,2013-07-22 09:00:00
6:00 AM,79.0,73.0,82,29.92,-9999.0,ENE,3.5,-,N/A,,Overcast,60,2013-07-22 10:00:00
7:00 AM,82.0,73.9,76,29.92,-9999.0,ENE,5.8,-,N/A,,Overcast,70,2013-07-22 11:00:00
7:20 AM,80.6,73.4,79,29.93,-9999.0,NE,3.5,-,N/A,,Mostly Cloudy,50,2013-07-22 11:20:00
7:29 AM,78.8,73.4,83,29.93,-9999.0,Calm,Calm,-,N/A,,Mostly Cloudy,0,2013-07-22 11:29:00
8:00 AM,80.1,73.9,81,29.93,-9999.0,Calm,Calm,-,N/A,,Overcast,0,2013-07-22 12:00:00
9:00 AM,86.0,73.9,67,29.93,-9999.0,ENE,5.8,-,N/A,,Overcast,60,2013-07-22 13:00:00
9:26 AM,87.8,75.2,66,29.94,-9999.0,ENE,4.6,-,N/A,,Overcast,60,2013-07-22 13:26:00
10:00 AM,87.1,73.9,65,29.94,-9999.0,East,5.8,-,N/A,,Overcast,90,2013-07-22 14:00:00
11:00 AM,89.1,73.9,61,29.93,-9999.0,NE,6.9,-,N/A,,Overcast,50,2013-07-22 15:00:00
12:00 PM,93.0,73.9,54,29.93,-9999.0,East,6.9,-,N/A,,Mostly Cloudy,80,2013-07-22 16:00:00
1:00 PM,-9999,-9999,N/A,-9999,-9999.0,SE,8.1,-,N/A,,Mostly Cloudy,130,2013-07-22 17:00:00
2:00 PM,-9999,-9999,N/A,-9999,-9999.0,ENE,9.2,-,N/A,,Mostly Cloudy,70,2013-07-22 18:00:00
2:21 PM,-9999,-9999,N/A,-9999,-9999.0,ESE,9.2,-,N/A,,Mostly Cloudy,120,2013-07-22 18:21:00
3:00 PM,-9999,-9999,N/A,-9999,-9999.0,East,12.7,-,N/A,,Mostly Cloudy,100,2013-07-22 19:00:00
4:00 PM,-9999,-9999,N/A,-9999,-9999.0,East,11.5,-,N/A,Thunderstorm,Thunderstorm,100,2013-07-22 20:00:00
4:13 PM,-9999,-9999,N/A,-9999,-9999.0,ESE,12.7,-,N/A,,Mostly Cloudy,120,2013-07-22 20:13:00
4:44 PM,-9999,-9999,N/A,-9999,-9999.0,East,9.2,-,N/A,Thunderstorm,Thunderstorm,100,2013-07-22 20:44:00
5:33 PM,-9999,-9999,N/A,-9999,-9999.0,NE,18.4,33.4,N/A,Rain-Thunderstorm,Light Thunderstorms and Rain,40,2013-07-22 21:33:00
6:00 PM,-9999,-9999,N/A,-9999,-9999.0,ENE,6.9,18.4,N/A,Thunderstorm,Thunderstorm,70,2013-07-22 22:00:00
6:19 PM,-9999,-9999,N/A,-9999,-9999.0,NE,8.1,17.3,N/A,Thunderstorm,Thunderstorm,40,2013-07-22 22:19:00
6:42 PM,-9999,-9999,N/A,-9999,-9999.0,NE,4.6,-,N/A,Thunderstorm,Thunderstorm,40,2013-07-22 22:42:00
7:00 PM,-9999,-9999,N/A,-9999,-9999.0,NE,3.5,-,N/A,Thunderstorm,Thunderstorm,40,2013-07-22 23:00:00
7:07 PM,-9999,-9999,N/A,-9999,-9999.0,NE,3.5,-,N/A,Thunderstorm,Thunderstorm,50,2013-07-22 23:07:00
8:00 PM,-9999,-9999,N/A,-9999,-9999.0,Calm,Calm,-,N/A,Thunderstorm,Thunderstorm,0,2013-07-23 00:00:00
8:37 PM,-9999,-9999,N/A,-9999,-9999.0,Calm,Calm,-,N/A,,Overcast,0,2013-07-23 00:37:00
8:44 PM,-9999,-9999,N/A,-9999,-9999.0,Calm,Calm,-,N/A,Thunderstorm,Thunderstorm,0,2013-07-23 00:44:00
9:00 PM,-9999,-9999,N/A,-9999,-9999.0,Calm,Calm,-,N/A,Thunderstorm,Thunderstorm,0,2013-07-23 01:00:00
9:09 PM,-9999,-9999,N/A,-9999,-9999.0,Calm,Calm,-,N/A,Thunderstorm,Thunderstorm,0,2013-07-23 01:09:00
10:00 PM,-9999,-9999,N/A,-9999,-9999.0,Calm,Calm,-,N/A,,Partly Cloudy,0,2013-07-23 02:00:00
10:06 PM,-9999,-9999,N/A,-9999,-9999.0,Calm,Calm,-,N/A,,Scattered Clouds,0,2013-07-23 02:06:00
10:14 PM,-9999,-9999,N/A,-9999,-9999.0,Calm,Calm,-,N/A,,Mostly Cloudy,0,2013-07-23 02:14:00
11:00 PM,-9999,-9999,N/A,-9999,-9999.0,Calm,Calm,-,N/A,,Overcast,0,2013-07-23 03:00:00